| time (UTC) | temp C | wind direction | speed KPH | gust KPH | rain 1hr cm | rain 24hr cm | rain mn cm | humidity % | barometer mb |
| 20260506091457 | 10 | 20 | 19.3 | 0.0 | 0.00 | 0.00 | 0.00 | 66 | 1008.0 |
| 20260506085957 | 10 | 30 | 19.3 | 0.0 | 0.00 | 0.00 | 0.00 | 71 | 1008.0 |
| 20260506084457 | 10 | 30 | 19.3 | 0.0 | 0.00 | 0.00 | 0.00 | 71 | 1008.0 |
| 20260506082958 | 10 | 30 | 20.9 | 0.0 | 0.00 | 0.00 | 0.00 | 82 | 1008.0 |
| 20260506081457 | 10 | 30 | 20.9 | 0.0 | 0.00 | 0.00 | 0.00 | 82 | 1008.0 |
| 20260506072957 | 10 | 10 | 16.1 | 0.0 | 0.00 | 0.00 | 0.00 | 82 | 1007.0 |
| 20260506071457 | 10 | 10 | 16.1 | 0.0 | 0.00 | 0.00 | 0.00 | 82 | 1007.0 |
| 20260506061458 | 8 | 350 | 11.3 | 0.0 | 0.00 | 0.00 | 0.00 | 87 | 1007.0 |
| 20260506044457 | 8 | 350 | 12.9 | 0.0 | 0.00 | 0.00 | 0.00 | 87 | 1007.0 |
| 20260506042957 | 8 | 350 | 12.9 | 0.0 | 0.00 | 0.00 | 0.00 | 87 | 1007.0 |
| 20260506041457 | 8 | 350 | 12.9 | 0.0 | 0.00 | 0.00 | 0.00 | 87 | 1007.0 |
| 20260506035958 | 7 | 350 | 11.3 | 0.0 | 0.00 | 0.00 | 0.00 | 93 | 1007.0 |
| 20260506034457 | 7 | 350 | 11.3 | 0.0 | 0.00 | 0.00 | 0.00 | 93 | 1007.0 |
| 20260506032957 | 7 | 360 | 14.5 | 0.0 | 0.00 | 0.00 | 0.00 | 93 | 1008.0 |
| 20260506031458 | 7 | 360 | 14.5 | 0.0 | 0.00 | 0.00 | 0.00 | 93 | 1008.0 |
| 20260506025957 | 7 | 360 | 16.1 | 0.0 | 0.00 | 0.00 | 0.00 | 93 | 1008.0 |
| 20260506024458 | 7 | 360 | 16.1 | 0.0 | 0.00 | 0.00 | 0.00 | 93 | 1008.0 |
| 20260506022958 | 7 | 360 | 14.5 | 0.0 | 0.00 | 0.00 | 0.00 | 93 | 1008.0 |
| 20260506021458 | 7 | 360 | 14.5 | 0.0 | 0.00 | 0.00 | 0.00 | 93 | 1008.0 |
| 20260506015958 | 7 | 360 | 14.5 | 0.0 | 0.00 | 0.00 | 0.00 | 93 | 1008.0 |
| 20260506014457 | 7 | 360 | 14.5 | 0.0 | 0.00 | 0.00 | 0.00 | 93 | 1008.0 |
| 20260506012957 | 7 | 360 | 20.9 | 0.0 | 0.00 | 0.00 | 0.00 | 87 | 1008.0 |
| 20260506011457 | 7 | 360 | 20.9 | 0.0 | 0.00 | 0.00 | 0.00 | 87 | 1008.0 |
| 20260506005957 | 8 | 10 | 19.3 | 0.0 | 0.00 | 0.00 | 0.00 | 81 | 1008.0 |
| 20260506004457 | 8 | 10 | 19.3 | 0.0 | 0.00 | 0.00 | 0.00 | 81 | 1008.0 |
| 20260506002957 | 8 | 10 | 20.9 | 0.0 | 0.00 | 0.00 | 0.00 | 87 | 1009.0 |
| 20260506001457 | 8 | 10 | 20.9 | 0.0 | 0.00 | 0.00 | 0.00 | 87 | 1009.0 |
| 20260505235957 | 8 | 10 | 20.9 | 0.0 | 0.00 | 0.00 | 0.00 | 87 | 1009.0 |
| 20260505234458 | 8 | 10 | 20.9 | 0.0 | 0.00 | 0.00 | 0.00 | 87 | 1009.0 |
| 20260505232958 | 8 | 360 | 19.3 | 0.0 | 0.00 | 0.00 | 0.00 | 81 | 1009.0 |
| 20260505231457 | 8 | 360 | 19.3 | 0.0 | 0.00 | 0.00 | 0.00 | 81 | 1009.0 |
| 20260505225958 | 10 | 10 | 19.3 | 0.0 | 0.00 | 0.00 | 0.00 | 76 | 1009.0 |
| 20260505224457 | 10 | 10 | 19.3 | 0.0 | 0.00 | 0.00 | 0.00 | 76 | 1009.0 |
| 20260505222957 | 10 | 360 | 19.3 | 0.0 | 0.00 | 0.00 | 0.00 | 76 | 1009.0 |
| 20260505221458 | 10 | 360 | 19.3 | 0.0 | 0.00 | 0.00 | 0.00 | 76 | 1009.0 |
| 20260505215957 | 10 | 360 | 16.1 | 0.0 | 0.00 | 0.00 | 0.00 | 82 | 1009.0 |
| 20260505214457 | 10 | 360 | 16.1 | 0.0 | 0.00 | 0.00 | 0.00 | 82 | 1009.0 |
| 20260505212957 | 10 | 360 | 19.3 | 0.0 | 0.00 | 0.00 | 0.00 | 82 | 1009.0 |
| 20260505211458 | 10 | 360 | 19.3 | 0.0 | 0.00 | 0.00 | 0.00 | 82 | 1009.0 |
| 20260505205957 | 10 | 10 | 20.9 | 0.0 | 0.00 | 0.00 | 0.00 | 82 | 1009.0 |
| 20260505204458 | 10 | 10 | 20.9 | 0.0 | 0.00 | 0.00 | 0.00 | 82 | 1009.0 |
| 20260505202957 | 10 | 10 | 19.3 | 0.0 | 0.00 | 0.00 | 0.00 | 82 | 1009.0 |
| 20260505201457 | 10 | 10 | 19.3 | 0.0 | 0.00 | 0.00 | 0.00 | 82 | 1009.0 |
| 20260505195957 | 10 | 10 | 19.3 | 0.0 | 0.00 | 0.00 | 0.00 | 82 | 1009.0 |
| 20260505194458 | 10 | 10 | 19.3 | 0.0 | 0.00 | 0.00 | 0.00 | 82 | 1009.0 |
| 20260505192958 | 11 | 10 | 12.9 | 0.0 | 0.00 | 0.00 | 0.00 | 76 | 1009.0 |
| 20260505191458 | 11 | 10 | 12.9 | 0.0 | 0.00 | 0.00 | 0.00 | 76 | 1009.0 |
| 20260505185957 | 11 | 10 | 14.5 | 0.0 | 0.00 | 0.00 | 0.00 | 82 | 1009.0 |
| 20260505184457 | 11 | 10 | 14.5 | 0.0 | 0.00 | 0.00 | 0.00 | 82 | 1009.0 |
| 20260505182957 | 11 | 20 | 19.3 | 0.0 | 0.00 | 0.00 | 0.00 | 82 | 1009.0 |
| 20260505181459 | 11 | 20 | 19.3 | 0.0 | 0.00 | 0.00 | 0.00 | 82 | 1009.0 |
| 20260505175957 | 11 | 10 | 20.9 | 0.0 | 0.00 | 0.00 | 0.00 | 82 | 1009.0 |
| 20260505174458 | 11 | 10 | 20.9 | 0.0 | 0.00 | 0.00 | 0.00 | 82 | 1009.0 |
| 20260505172957 | 11 | 20 | 20.9 | 0.0 | 0.00 | 0.00 | 0.00 | 76 | 1009.0 |
| 20260505171457 | 11 | 20 | 20.9 | 0.0 | 0.00 | 0.00 | 0.00 | 76 | 1009.0 |
| 20260505165958 | 12 | 10 | 20.9 | 0.0 | 0.00 | 0.00 | 0.00 | 77 | 1009.0 |
| 20260505164457 | 12 | 10 | 20.9 | 0.0 | 0.00 | 0.00 | 0.00 | 77 | 1009.0 |
| 20260505162957 | 12 | 360 | 19.3 | 0.0 | 0.00 | 0.00 | 0.00 | 77 | 1009.0 |
| 20260505161457 | 12 | 360 | 19.3 | 0.0 | 0.00 | 0.00 | 0.00 | 77 | 1009.0 |
| 20260505152958 | 12 | 20 | 14.5 | 0.0 | 0.00 | 0.00 | 0.00 | 77 | 1010.0 |
| 20260505151457 | 12 | 20 | 14.5 | 0.0 | 0.00 | 0.00 | 0.00 | 77 | 1010.0 |
| 20260505124457 | 11 | 20 | 14.5 | 0.0 | 0.00 | 0.00 | 0.00 | 82 | 1010.0 |
| 20260505122957 | 11 | 20 | 12.9 | 0.0 | 0.00 | 0.00 | 0.00 | 82 | 1011.0 |
| 20260505121457 | 11 | 20 | 12.9 | 0.0 | 0.00 | 0.00 | 0.00 | 82 | 1011.0 |
| 20260505115958 | 11 | 30 | 14.5 | 0.0 | 0.00 | 0.00 | 0.00 | 82 | 1011.0 |
| 20260505114457 | 11 | 30 | 14.5 | 0.0 | 0.00 | 0.00 | 0.00 | 82 | 1011.0 |
| 20260505112958 | 11 | 30 | 14.5 | 0.0 | 0.00 | 0.00 | 0.00 | 82 | 1011.0 |
| 20260505111457 | 11 | 30 | 14.5 | 0.0 | 0.00 | 0.00 | 0.00 | 82 | 1011.0 |
| 20260505101457 | 10 | 20 | 16.1 | 0.0 | 0.00 | 0.00 | 0.00 | 87 | 1011.0 |
| 20260505095957 | 10 | 20 | 14.5 | 0.0 | 0.00 | 0.00 | 0.00 | 87 | 1011.0 |
| 20260505094458 | 10 | 20 | 14.5 | 0.0 | 0.00 | 0.00 | 0.00 | 87 | 1011.0 |
| 20260505092957 | 8 | 30 | 12.9 | 0.0 | 0.00 | 0.00 | 0.00 | 93 | 1011.0 |